Time,TemperatureF,DewpointF,PressureIn,WindDirection,WindDirectionDegrees,WindSpeedMPH,WindSpeedGustMPH,Humidity,HourlyPrecipIn,Conditions,Clouds,dailyrainin,SoftwareType,DateUTC
2013-04-04 00:00:00,54.0,26.2,30.15,ENE,68,3.0,8.0,34,0.00,,,0.00,Weather View 32 v70,2013-04-04 04:00:00,
2013-04-04 00:05:00,54.0,26.2,30.16,ENE,68,2.0,6.0,34,0.00,,,0.00,Weather View 32 v70,2013-04-04 04:05:00,
2013-04-04 00:10:00,54.0,26.2,30.16,ENE,68,1.0,6.0,34,0.00,,,0.00,Weather View 32 v70,2013-04-04 04:10:00,
2013-04-04 00:15:00,54.0,26.2,30.15,ENE,68,3.0,6.0,34,0.00,,,0.00,Weather View 32 v70,2013-04-04 04:15:00,
2013-04-04 00:20:00,54.0,26.9,30.15,East,90,3.0,6.0,35,0.00,,,0.00,Weather View 32 v70,2013-04-04 04:20:00,
2013-04-04 00:25:00,54.0,26.9,30.15,East,90,3.0,8.0,35,0.00,,,0.00,Weather View 32 v70,2013-04-04 04:25:00,
2013-04-04 00:30:00,54.0,27.6,30.15,ENE,68,3.0,8.0,36,0.00,,,0.00,Weather View 32 v70,2013-04-04 04:30:00,
2013-04-04 00:35:00,53.0,26.7,30.15,East,90,4.0,8.0,36,0.00,,,0.00,Weather View 32 v70,2013-04-04 04:35:00,
2013-04-04 00:40:00,53.0,26.0,30.15,ENE,68,2.0,8.0,35,0.00,,,0.00,Weather View 32 v70,2013-04-04 04:40:00,
2013-04-04 00:45:00,53.0,26.7,30.15,North,0,4.0,8.0,36,0.00,,,0.00,Weather View 32 v70,2013-04-04 04:45:00,
2013-04-04 00:50:00,53.0,26.7,30.14,ENE,68,3.0,8.0,36,0.00,,,0.00,Weather View 32 v70,2013-04-04 04:50:00,
2013-04-04 00:55:00,53.0,26.7,30.14,East,90,3.0,9.0,36,0.00,,,0.00,Weather View 32 v70,2013-04-04 04:55:00,
2013-04-04 01:00:00,53.0,26.7,30.14,East,90,3.0,9.0,36,0.00,,,0.00,Weather View 32 v70,2013-04-04 05:00:00,
2013-04-04 01:05:00,53.0,26.7,30.15,East,90,6.0,9.0,36,0.00,,,0.00,Weather View 32 v70,2013-04-04 05:05:00,
2013-04-04 01:10:00,53.0,27.4,30.15,ENE,68,3.0,9.0,37,0.00,,,0.00,Weather View 32 v70,2013-04-04 05:10:00,
2013-04-04 01:15:00,53.0,27.4,30.15,East,90,5.0,9.0,37,0.00,,,0.00,Weather View 32 v70,2013-04-04 05:15:00,
2013-04-04 01:20:00,53.0,28.7,30.15,ENE,68,3.0,9.0,39,0.00,,,0.00,Weather View 32 v70,2013-04-04 05:20:00,
2013-04-04 01:25:00,53.0,28.0,30.15,East,90,4.0,9.0,38,0.00,,,0.00,Weather View 32 v70,2013-04-04 05:25:00,
2013-04-04 01:30:00,53.0,28.7,30.15,SSE,158,3.0,9.0,39,0.00,,,0.00,Weather View 32 v70,2013-04-04 05:30:00,
2013-04-04 01:35:00,53.0,28.7,30.15,East,90,3.0,9.0,39,0.00,,,0.00,Weather View 32 v70,2013-04-04 05:35:00,
2013-04-04 01:40:00,53.0,28.7,30.15,East,90,3.0,9.0,39,0.00,,,0.00,Weather View 32 v70,2013-04-04 05:40:00,
2013-04-04 01:45:00,53.0,28.7,30.15,East,90,3.0,9.0,39,0.00,,,0.00,Weather View 32 v70,2013-04-04 05:45:00,
2013-04-04 01:50:00,53.0,29.3,30.15,East,90,6.0,9.0,40,0.00,,,0.00,Weather View 32 v70,2013-04-04 05:50:00,
2013-04-04 01:55:00,52.0,29.0,30.15,ENE,68,3.0,8.0,41,0.00,,,0.00,Weather View 32 v70,2013-04-04 05:55:00,
2013-04-04 02:00:00,52.0,29.0,30.15,ENE,68,3.0,8.0,41,0.00,,,0.00,Weather View 32 v70,2013-04-04 06:00:00,
2013-04-04 02:05:00,52.0,29.0,30.15,East,90,3.0,8.0,41,0.00,,,0.00,Weather View 32 v70,2013-04-04 06:05:00,
2013-04-04 02:10:00,52.0,29.6,30.15,East,90,6.0,8.0,42,0.00,,,0.00,Weather View 32 v70,2013-04-04 06:10:00,
2013-04-04 02:15:00,52.0,29.6,30.15,ENE,68,3.0,8.0,42,0.00,,,0.00,Weather View 32 v70,2013-04-04 06:15:00,
2013-04-04 02:20:00,52.0,29.6,30.15,East,90,1.0,8.0,42,0.00,,,0.00,Weather View 32 v70,2013-04-04 06:20:00,
2013-04-04 02:25:00,52.0,29.6,30.15,ENE,68,2.0,8.0,42,0.00,,,0.00,Weather View 32 v70,2013-04-04 06:25:00,
2013-04-04 02:30:00,52.0,30.2,30.15,East,90,5.0,8.0,43,0.00,,,0.00,Weather View 32 v70,2013-04-04 06:30:00,
2013-04-04 02:35:00,52.0,29.6,30.14,ENE,68,3.0,8.0,42,0.00,,,0.00,Weather View 32 v70,2013-04-04 06:35:00,
2013-04-04 02:40:00,52.0,29.6,30.14,ENE,68,3.0,8.0,42,0.00,,,0.00,Weather View 32 v70,2013-04-04 06:40:00,
2013-04-04 02:45:00,52.0,30.2,30.14,ENE,68,3.0,8.0,43,0.00,,,0.00,Weather View 32 v70,2013-04-04 06:45:00,
2013-04-04 02:50:00,52.0,30.2,30.14,ENE,68,2.0,8.0,43,0.00,,,0.00,Weather View 32 v70,2013-04-04 06:50:00,
2013-04-04 02:55:00,52.0,30.2,30.14,ENE,68,5.0,6.0,43,0.00,,,0.00,Weather View 32 v70,2013-04-04 06:55:00,
2013-04-04 03:00:00,52.0,30.7,30.14,East,90,3.0,6.0,44,0.00,,,0.00,Weather View 32 v70,2013-04-04 07:00:00,
2013-04-04 03:05:00,52.0,30.7,30.14,East,90,1.0,6.0,44,0.00,,,0.00,Weather View 32 v70,2013-04-04 07:05:00,
2013-04-04 03:10:00,51.0,29.8,30.14,ENE,68,3.0,6.0,44,0.00,,,0.00,Weather View 32 v70,2013-04-04 07:10:00,
2013-04-04 03:15:00,51.0,30.4,30.14,ENE,68,1.0,6.0,45,0.00,,,0.00,Weather View 32 v70,2013-04-04 07:15:00,
2013-04-04 03:20:00,51.0,30.4,30.14,ENE,68,2.0,6.0,45,0.00,,,0.00,Weather View 32 v70,2013-04-04 07:20:00,
2013-04-04 03:26:00,51.0,30.4,30.15,ENE,68,3.0,6.0,45,0.00,,,0.00,Weather View 32 v70,2013-04-04 07:26:00,
2013-04-04 03:31:00,51.0,30.4,30.15,ENE,68,3.0,6.0,45,0.00,,,0.00,Weather View 32 v70,2013-04-04 07:31:00,
2013-04-04 03:36:00,51.0,30.4,30.14,North,0,2.0,6.0,45,0.00,,,0.00,Weather View 32 v70,2013-04-04 07:36:00,
2013-04-04 03:41:00,51.0,29.8,30.14,ENE,68,3.0,8.0,44,0.00,,,0.00,Weather View 32 v70,2013-04-04 07:41:00,
2013-04-04 03:46:00,51.0,29.2,30.14,ENE,68,3.0,9.0,43,0.00,,,0.00,Weather View 32 v70,2013-04-04 07:46:00,
2013-04-04 03:51:00,51.0,29.2,30.14,ENE,68,3.0,9.0,43,0.00,,,0.00,Weather View 32 v70,2013-04-04 07:51:00,
2013-04-04 03:56:00,51.0,29.2,30.14,ENE,68,3.0,9.0,43,0.00,,,0.00,Weather View 32 v70,2013-04-04 07:56:00,
2013-04-04 04:01:00,51.0,28.1,30.14,East,90,4.0,9.0,41,0.00,,,0.00,Weather View 32 v70,2013-04-04 08:01:00,
2013-04-04 04:06:00,51.0,27.5,30.14,ENE,68,6.0,9.0,40,0.00,,,0.00,Weather View 32 v70,2013-04-04 08:06:00,
2013-04-04 04:11:00,52.0,28.4,30.14,ENE,68,3.0,9.0,40,0.00,,,0.00,Weather View 32 v70,2013-04-04 08:11:00,
2013-04-04 04:16:00,52.0,27.8,30.14,North,0,3.0,9.0,39,0.00,,,0.00,Weather View 32 v70,2013-04-04 08:16:00,
2013-04-04 04:22:00,51.0,26.9,30.14,ENE,68,3.0,9.0,39,0.00,,,0.00,Weather View 32 v70,2013-04-04 08:22:00,
2013-04-04 04:27:00,51.0,26.9,30.15,ENE,68,4.0,9.0,39,0.00,,,0.00,Weather View 32 v70,2013-04-04 08:27:00,
2013-04-04 04:32:00,51.0,26.9,30.15,ENE,68,4.0,9.0,39,0.00,,,0.00,Weather View 32 v70,2013-04-04 08:32:00,
2013-04-04 04:37:00,51.0,26.9,30.15,ENE,68,7.0,9.0,39,0.00,,,0.00,Weather View 32 v70,2013-04-04 08:37:00,
2013-04-04 04:42:00,51.0,26.9,30.15,ENE,68,7.0,10.0,39,0.00,,,0.00,Weather View 32 v70,2013-04-04 08:42:00,
2013-04-04 04:47:00,51.0,26.2,30.15,North,0,3.0,10.0,38,0.00,,,0.00,Weather View 32 v70,2013-04-04 08:47:00,
2013-04-04 04:52:00,51.0,26.2,30.15,ENE,68,6.0,10.0,38,0.00,,,0.00,Weather View 32 v70,2013-04-04 08:52:00,
2013-04-04 04:58:00,51.0,26.2,30.15,ENE,68,3.0,10.0,38,0.00,,,0.00,Weather View 32 v70,2013-04-04 08:58:00,
2013-04-04 05:03:00,51.0,25.6,30.15,ENE,68,3.0,10.0,37,0.00,,,0.00,Weather View 32 v70,2013-04-04 09:03:00,
2013-04-04 05:08:00,51.0,25.6,30.15,ENE,68,6.0,10.0,37,0.00,,,0.00,Weather View 32 v70,2013-04-04 09:08:00,
2013-04-04 05:13:00,51.0,24.9,30.15,ENE,68,3.0,10.0,36,0.00,,,0.00,Weather View 32 v70,2013-04-04 09:13:00,
2013-04-04 05:18:00,51.0,24.9,30.16,ENE,68,3.0,10.0,36,0.00,,,0.00,Weather View 32 v70,2013-04-04 09:18:00,
2013-04-04 05:23:00,50.0,24.7,30.16,ENE,68,3.0,10.0,37,0.00,,,0.00,Weather View 32 v70,2013-04-04 09:23:00,
2013-04-04 05:28:00,50.0,24.7,30.16,ENE,68,3.0,10.0,37,0.00,,,0.00,Weather View 32 v70,2013-04-04 09:28:00,
2013-04-04 05:33:00,50.0,24.0,30.16,North,0,3.0,10.0,36,0.00,,,0.00,Weather View 32 v70,2013-04-04 09:33:00,
2013-04-04 05:38:00,50.0,24.0,30.16,North,0,5.0,10.0,36,0.00,,,0.00,Weather View 32 v70,2013-04-04 09:38:00,
2013-04-04 05:43:00,50.0,24.0,30.16,ENE,68,8.0,12.0,36,0.00,,,0.00,Weather View 32 v70,2013-04-04 09:43:00,
2013-04-04 05:48:00,50.0,24.0,30.16,ENE,68,9.0,12.0,36,0.00,,,0.00,Weather View 32 v70,2013-04-04 09:48:00,
2013-04-04 05:53:00,49.0,25.1,30.16,ENE,68,4.0,12.0,39,0.00,,,0.00,Weather View 32 v70,2013-04-04 09:53:00,
2013-04-04 05:58:00,49.0,25.1,30.16,ENE,68,9.0,12.0,39,0.00,,,0.00,Weather View 32 v70,2013-04-04 09:58:00,
2013-04-04 06:03:00,49.0,24.5,30.16,ENE,68,6.0,13.0,38,0.00,,,0.00,Weather View 32 v70,2013-04-04 10:03:00,
2013-04-04 06:08:00,49.0,24.5,30.16,East,90,6.0,13.0,38,0.00,,,0.00,Weather View 32 v70,2013-04-04 10:08:00,
2013-04-04 06:13:00,48.0,24.2,30.16,ENE,68,7.0,13.0,39,0.00,,,0.00,Weather View 32 v70,2013-04-04 10:13:00,
2013-04-04 06:18:00,48.0,24.8,30.16,ENE,68,3.0,13.0,40,0.00,,,0.00,Weather View 32 v70,2013-04-04 10:18:00,
2013-04-04 06:23:00,48.0,25.4,30.16,North,0,8.0,13.0,41,0.00,,,0.00,Weather View 32 v70,2013-04-04 10:23:00,
2013-04-04 06:28:00,47.0,25.6,30.16,ENE,68,4.0,13.0,43,0.00,,,0.00,Weather View 32 v70,2013-04-04 10:28:00,
2013-04-04 06:33:00,47.0,25.6,30.16,ENE,68,8.0,13.0,43,0.00,,,0.00,Weather View 32 v70,2013-04-04 10:33:00,
2013-04-04 06:38:00,47.0,26.2,30.16,ENE,68,5.0,13.0,44,0.00,,,0.00,Weather View 32 v70,2013-04-04 10:38:00,
2013-04-04 06:43:00,47.0,26.2,30.16,ENE,68,2.0,13.0,44,0.00,,,0.00,Weather View 32 v70,2013-04-04 10:43:00,
2013-04-04 06:48:00,46.0,26.9,30.16,North,0,6.0,13.0,47,0.00,,,0.00,Weather View 32 v70,2013-04-04 10:48:00,
2013-04-04 06:53:00,46.0,27.4,30.17,ENE,68,3.0,13.0,48,0.00,,,0.00,Weather View 32 v70,2013-04-04 10:53:00,
2013-04-04 06:58:00,46.0,27.4,30.17,ENE,68,3.0,13.0,48,0.00,,,0.00,Weather View 32 v70,2013-04-04 10:58:00,
2013-04-04 07:04:00,46.0,27.9,30.17,ENE,68,5.0,13.0,49,0.00,,,0.00,Weather View 32 v70,2013-04-04 11:04:00,
2013-04-04 07:09:00,46.0,27.9,30.17,ENE,68,6.0,13.0,49,0.00,,,0.00,Weather View 32 v70,2013-04-04 11:09:00,
2013-04-04 07:14:00,46.0,27.4,30.17,ENE,68,6.0,13.0,48,0.00,,,0.00,Weather View 32 v70,2013-04-04 11:14:00,
2013-04-04 07:19:00,46.0,28.9,30.17,ENE,68,5.0,13.0,51,0.00,,,0.00,Weather View 32 v70,2013-04-04 11:19:00,
2013-04-04 07:24:00,45.0,28.4,30.17,ENE,68,8.0,13.0,52,0.00,,,0.00,Weather View 32 v70,2013-04-04 11:24:00,
2013-04-04 07:29:00,45.0,28.4,30.17,ENE,68,4.0,13.0,52,0.00,,,0.00,Weather View 32 v70,2013-04-04 11:29:00,
2013-04-04 07:34:00,45.0,30.7,30.17,ENE,68,3.0,13.0,57,0.00,,,0.00,Weather View 32 v70,2013-04-04 11:34:00,
2013-04-04 07:39:00,44.0,29.7,30.17,ENE,68,6.0,15.0,57,0.00,,,0.00,Weather View 32 v70,2013-04-04 11:39:00,
2013-04-04 07:44:00,44.0,29.7,30.17,ENE,68,4.0,15.0,57,0.00,,,0.00,Weather View 32 v70,2013-04-04 11:44:00,
2013-04-04 07:50:00,44.0,30.2,30.17,ENE,68,4.0,15.0,58,0.00,,,0.00,Weather View 32 v70,2013-04-04 11:50:00,
2013-04-04 07:55:00,44.0,30.2,30.18,ENE,68,6.0,15.0,58,0.00,,,0.00,Weather View 32 v70,2013-04-04 11:55:00,
2013-04-04 08:00:00,44.0,29.7,30.18,ENE,68,5.0,15.0,57,0.00,,,0.00,Weather View 32 v70,2013-04-04 12:00:00,
2013-04-04 08:05:00,44.0,29.3,30.17,ENE,68,6.0,15.0,56,0.00,,,0.00,Weather View 32 v70,2013-04-04 12:05:00,
2013-04-04 08:10:00,44.0,29.3,30.18,ENE,68,6.0,15.0,56,0.00,,,0.00,Weather View 32 v70,2013-04-04 12:10:00,
2013-04-04 08:15:00,45.0,30.2,30.18,North,0,3.0,15.0,56,0.00,,,0.00,Weather View 32 v70,2013-04-04 12:15:00,
2013-04-04 08:20:00,45.0,30.7,30.18,ENE,68,11.0,15.0,57,0.00,,,0.00,Weather View 32 v70,2013-04-04 12:20:00,
2013-04-04 08:25:00,45.0,30.7,30.18,ENE,68,8.0,15.0,57,0.00,,,0.00,Weather View 32 v70,2013-04-04 12:25:00,
2013-04-04 08:30:00,45.0,30.7,30.17,ENE,68,13.0,16.0,57,0.00,,,0.00,Weather View 32 v70,2013-04-04 12:30:00,
2013-04-04 08:35:00,45.0,30.2,30.18,ENE,68,6.0,16.0,56,0.00,,,0.00,Weather View 32 v70,2013-04-04 12:35:00,
2013-04-04 08:40:00,45.0,30.7,30.17,ENE,68,5.0,16.0,57,0.00,,,0.00,Weather View 32 v70,2013-04-04 12:40:00,
2013-04-04 08:45:00,44.0,30.6,30.17,ENE,68,5.0,16.0,59,0.00,,,0.00,Weather View 32 v70,2013-04-04 12:45:00,
2013-04-04 08:50:00,44.0,30.2,30.17,ENE,68,5.0,16.0,58,0.00,,,0.00,Weather View 32 v70,2013-04-04 12:50:00,
2013-04-04 08:55:00,44.0,31.0,30.18,ENE,68,10.0,16.0,60,0.00,,,0.00,Weather View 32 v70,2013-04-04 12:55:00,
2013-04-04 09:00:00,44.0,31.4,30.17,ENE,68,6.0,16.0,61,0.00,,,0.00,Weather View 32 v70,2013-04-04 13:00:00,
2013-04-04 09:05:00,44.0,31.4,30.17,ENE,68,11.0,16.0,61,0.00,,,0.00,Weather View 32 v70,2013-04-04 13:05:00,
2013-04-04 09:10:00,44.0,32.2,30.17,North,0,6.0,16.0,63,0.01,,,0.01,Weather View 32 v70,2013-04-04 13:10:00,
2013-04-04 09:15:00,43.0,32.4,30.16,East,90,13.0,16.0,66,0.01,,,0.01,Weather View 32 v70,2013-04-04 13:15:00,
2013-04-04 09:20:00,44.0,33.4,30.17,ENE,68,11.0,16.0,66,0.01,,,0.01,Weather View 32 v70,2013-04-04 13:20:00,
2013-04-04 09:25:00,44.0,34.1,30.17,ENE,68,4.0,16.0,68,0.01,,,0.01,Weather View 32 v70,2013-04-04 13:25:00,
2013-04-04 09:30:00,44.0,34.1,30.17,North,0,6.0,16.0,68,0.01,,,0.01,Weather View 32 v70,2013-04-04 13:30:00,
2013-04-04 09:35:00,44.0,34.1,30.17,ENE,68,5.0,17.0,68,0.01,,,0.01,Weather View 32 v70,2013-04-04 13:35:00,
2013-04-04 09:40:00,44.0,34.8,30.16,ENE,68,9.0,17.0,70,0.01,,,0.01,Weather View 32 v70,2013-04-04 13:40:00,
2013-04-04 09:45:00,44.0,34.8,30.15,North,0,6.0,19.0,70,0.01,,,0.01,Weather View 32 v70,2013-04-04 13:45:00,
2013-04-04 09:50:00,44.0,35.2,30.16,ENE,68,3.0,19.0,71,0.01,,,0.01,Weather View 32 v70,2013-04-04 13:50:00,
2013-04-04 09:55:00,44.0,35.2,30.16,ENE,68,10.0,19.0,71,0.01,,,0.01,Weather View 32 v70,2013-04-04 13:55:00,
2013-04-04 10:00:00,44.0,35.9,30.15,East,90,5.0,19.0,73,0.01,,,0.01,Weather View 32 v70,2013-04-04 14:00:00,
2013-04-04 10:05:00,44.0,35.5,30.16,ENE,68,5.0,19.0,72,0.01,,,0.01,Weather View 32 v70,2013-04-04 14:05:00,
2013-04-04 10:10:00,44.0,35.9,30.16,ENE,68,9.0,19.0,73,0.00,,,0.01,Weather View 32 v70,2013-04-04 14:10:00,
2013-04-04 10:15:00,44.0,36.2,30.16,East,90,6.0,19.0,74,0.00,,,0.01,Weather View 32 v70,2013-04-04 14:15:00,
2013-04-04 10:20:00,44.0,36.6,30.16,ENE,68,5.0,19.0,75,0.00,,,0.01,Weather View 32 v70,2013-04-04 14:20:00,
2013-04-04 10:25:00,44.0,36.6,30.16,ENE,68,13.0,19.0,75,0.00,,,0.01,Weather View 32 v70,2013-04-04 14:25:00,
2013-04-04 10:30:00,44.0,36.9,30.15,East,90,3.0,19.0,76,0.00,,,0.01,Weather View 32 v70,2013-04-04 14:30:00,
2013-04-04 10:35:00,44.0,36.9,30.15,ENE,68,5.0,19.0,76,0.00,,,0.01,Weather View 32 v70,2013-04-04 14:35:00,
2013-04-04 10:40:00,44.0,37.2,30.15,ENE,68,6.0,19.0,77,0.00,,,0.01,Weather View 32 v70,2013-04-04 14:40:00,
2013-04-04 10:45:00,44.0,37.2,30.14,ENE,68,6.0,18.0,77,0.00,,,0.01,Weather View 32 v70,2013-04-04 14:45:00,
2013-04-04 10:50:00,44.0,37.2,30.13,ENE,68,5.0,18.0,77,0.00,,,0.01,Weather View 32 v70,2013-04-04 14:50:00,
2013-04-04 10:56:00,44.0,37.2,30.13,ENE,68,16.0,19.0,77,0.00,,,0.01,Weather View 32 v70,2013-04-04 14:56:00,
2013-04-04 11:01:00,44.0,37.9,30.13,ENE,68,12.0,21.0,79,0.00,,,0.01,Weather View 32 v70,2013-04-04 15:01:00,
2013-04-04 11:06:00,44.0,38.2,30.13,East,90,17.0,21.0,80,0.00,,,0.01,Weather View 32 v70,2013-04-04 15:06:00,
2013-04-04 11:11:00,44.0,38.5,30.13,ENE,68,9.0,21.0,81,0.00,,,0.01,Weather View 32 v70,2013-04-04 15:11:00,
2013-04-04 11:16:00,44.0,38.5,30.13,SSE,158,5.0,21.0,81,0.00,,,0.01,Weather View 32 v70,2013-04-04 15:16:00,
2013-04-04 11:21:00,44.0,38.5,30.14,East,90,14.0,21.0,81,0.00,,,0.01,Weather View 32 v70,2013-04-04 15:21:00,
2013-04-04 11:26:00,44.0,38.5,30.13,East,90,7.0,21.0,81,0.00,,,0.01,Weather View 32 v70,2013-04-04 15:26:00,
2013-04-04 11:31:00,44.0,38.5,30.12,North,0,13.0,21.0,81,0.00,,,0.01,Weather View 32 v70,2013-04-04 15:31:00,
2013-04-04 11:36:00,44.0,38.5,30.13,East,90,9.0,21.0,81,0.00,,,0.01,Weather View 32 v70,2013-04-04 15:36:00,
2013-04-04 11:41:00,44.0,38.5,30.12,East,90,6.0,21.0,81,0.00,,,0.01,Weather View 32 v70,2013-04-04 15:41:00,
2013-04-04 11:46:00,44.0,38.5,30.12,ENE,68,10.0,21.0,81,0.00,,,0.01,Weather View 32 v70,2013-04-04 15:46:00,
2013-04-04 11:51:00,44.0,38.5,30.12,ENE,68,6.0,21.0,81,0.00,,,0.01,Weather View 32 v70,2013-04-04 15:51:00,
2013-04-04 11:56:00,43.0,37.9,30.14,ENE,68,9.0,19.0,82,0.00,,,0.01,Weather View 32 v70,2013-04-04 15:56:00,
2013-04-04 12:01:00,43.0,38.2,30.15,ENE,68,6.0,19.0,83,0.00,,,0.01,Weather View 32 v70,2013-04-04 16:01:00,
2013-04-04 12:06:00,43.0,38.5,30.15,North,0,5.0,16.0,84,0.00,,,0.01,Weather View 32 v70,2013-04-04 16:06:00,
2013-04-04 12:11:00,43.0,38.8,30.13,ENE,68,10.0,15.0,85,0.01,,,0.02,Weather View 32 v70,2013-04-04 16:11:00,
2013-04-04 12:17:00,43.0,39.4,30.12,ENE,68,6.0,15.0,87,0.01,,,0.03,Weather View 32 v70,2013-04-04 16:17:00,
2013-04-04 12:22:00,42.0,39.0,30.12,ENE,68,2.0,15.0,89,0.02,,,0.04,Weather View 32 v70,2013-04-04 16:22:00,
2013-04-04 12:27:00,42.0,39.3,30.11,ENE,68,8.0,15.0,90,0.03,,,0.04,Weather View 32 v70,2013-04-04 16:27:00,
2013-04-04 12:32:00,42.0,39.8,30.10,ENE,68,10.0,15.0,92,0.04,,,0.06,Weather View 32 v70,2013-04-04 16:32:00,
2013-04-04 12:37:00,42.0,40.1,30.11,ENE,68,5.0,15.0,93,0.06,,,0.07,Weather View 32 v70,2013-04-04 16:37:00,
2013-04-04 12:42:00,42.0,40.1,30.10,ENE,68,8.0,15.0,93,-0.01,,,0.08,Weather View 32 v70,2013-04-04 16:42:00,
2013-04-04 12:47:00,42.0,40.4,30.10,ENE,68,8.0,15.0,94,0.09,,,0.10,Weather View 32 v70,2013-04-04 16:47:00,
2013-04-04 12:52:00,42.0,40.7,30.11,ENE,68,5.0,15.0,95,0.10,,,0.11,Weather View 32 v70,2013-04-04 16:52:00,
2013-04-04 12:57:00,41.0,39.7,30.10,North,0,6.0,15.0,95,0.11,,,0.12,Weather View 32 v70,2013-04-04 16:57:00,
2013-04-04 13:02:00,41.0,39.9,30.10,ENE,68,2.0,15.0,96,0.12,,,0.13,Weather View 32 v70,2013-04-04 17:02:00,
2013-04-04 13:07:00,41.0,40.2,30.10,North,0,4.0,15.0,97,0.14,,,0.15,Weather View 32 v70,2013-04-04 17:07:00,
2013-04-04 13:12:00,41.0,40.2,30.11,NNW,338,3.0,15.0,97,0.15,,,0.17,Weather View 32 v70,2013-04-04 17:12:00,
2013-04-04 13:17:00,41.0,40.5,30.13,NNW,338,5.0,15.0,98,0.15,,,0.18,Weather View 32 v70,2013-04-04 17:17:00,
2013-04-04 13:22:00,41.0,40.5,30.11,ENE,68,3.0,14.0,98,0.16,,,0.20,Weather View 32 v70,2013-04-04 17:22:00,
2013-04-04 13:27:00,41.0,40.7,30.10,North,0,3.0,14.0,99,0.19,,,0.23,Weather View 32 v70,2013-04-04 17:27:00,
2013-04-04 13:32:00,41.0,40.7,30.10,North,0,4.0,14.0,99,0.19,,,0.25,Weather View 32 v70,2013-04-04 17:32:00,
2013-04-04 13:37:00,41.0,41.0,30.10,North,0,6.0,14.0,100,0.20,,,0.27,Weather View 32 v70,2013-04-04 17:37:00,
2013-04-04 13:42:00,41.0,41.0,30.10,North,0,5.0,14.0,100,0.19,,,0.28,Weather View 32 v70,2013-04-04 17:42:00,
2013-04-04 13:50:00,41.0,41.0,30.10,ENE,68,4.0,13.0,100,0.17,,,0.28,Weather View 32 v70,2013-04-04 17:50:00,
2013-04-04 13:55:00,41.0,41.0,30.09,ENE,68,4.0,13.0,100,0.17,,,0.29,Weather View 32 v70,2013-04-04 17:55:00,
2013-04-04 14:00:00,41.0,41.0,30.09,ENE,68,4.0,13.0,100,0.17,,,0.30,Weather View 32 v70,2013-04-04 18:00:00,
2013-04-04 14:10:00,41.0,41.0,30.09,ENE,68,6.0,11.0,100,0.18,,,0.34,Weather View 32 v70,2013-04-04 18:10:00,
2013-04-04 14:15:00,41.0,41.0,30.08,North,0,6.0,14.0,100,0.18,,,0.35,Weather View 32 v70,2013-04-04 18:15:00,
2013-04-04 14:20:00,41.0,41.0,30.08,North,0,7.0,14.0,100,0.17,,,0.36,Weather View 32 v70,2013-04-04 18:20:00,
2013-04-04 14:25:00,41.0,41.0,30.07,ENE,68,4.0,16.0,100,0.15,,,0.37,Weather View 32 v70,2013-04-04 18:25:00,
2013-04-04 14:30:00,41.0,41.0,30.08,ENE,68,10.0,16.0,100,0.14,,,0.38,Weather View 32 v70,2013-04-04 18:30:00,
2013-04-04 14:35:00,41.0,41.0,30.07,ENE,68,5.0,16.0,100,0.12,,,0.38,Weather View 32 v70,2013-04-04 18:35:00,
2013-04-04 14:40:00,41.0,41.0,30.06,ENE,68,13.0,16.0,100,0.12,,,0.39,Weather View 32 v70,2013-04-04 18:40:00,
2013-04-04 14:45:00,41.0,41.0,30.05,North,0,6.0,16.0,100,0.11,,,0.39,Weather View 32 v70,2013-04-04 18:45:00,
2013-04-04 14:50:00,41.0,41.0,30.04,ENE,68,4.0,16.0,100,0.12,,,0.40,Weather View 32 v70,2013-04-04 18:50:00,
2013-04-04 14:55:00,41.0,41.0,30.03,North,0,5.0,16.0,100,0.12,,,0.41,Weather View 32 v70,2013-04-04 18:55:00,
2013-04-04 15:00:00,41.0,41.0,30.04,North,0,5.0,20.0,100,0.11,,,0.41,Weather View 32 v70,2013-04-04 19:00:00,
2013-04-04 15:05:00,41.0,41.0,30.03,North,0,3.0,20.0,100,0.09,,,0.42,Weather View 32 v70,2013-04-04 19:05:00,
2013-04-04 15:10:00,41.0,41.0,30.04,North,0,10.0,20.0,100,0.09,,,0.43,Weather View 32 v70,2013-04-04 19:10:00,
2013-04-04 15:15:00,41.0,41.0,30.03,North,0,6.0,20.0,100,0.08,,,0.43,Weather View 32 v70,2013-04-04 19:15:00,
2013-04-04 15:20:00,41.0,41.0,30.03,North,0,8.0,20.0,100,0.07,,,0.43,Weather View 32 v70,2013-04-04 19:20:00,
2013-04-04 15:25:00,41.0,41.0,30.03,ENE,68,11.0,20.0,100,0.06,,,0.43,Weather View 32 v70,2013-04-04 19:25:00,
2013-04-04 15:30:00,41.0,41.0,30.02,ENE,68,11.0,20.0,100,0.05,,,0.43,Weather View 32 v70,2013-04-04 19:30:00,
2013-04-04 15:36:00,41.0,41.0,30.02,ENE,68,8.0,21.0,100,0.05,,,0.43,Weather View 32 v70,2013-04-04 19:36:00,
2013-04-04 15:41:00,41.0,41.0,30.02,ENE,68,5.0,21.0,100,0.05,,,0.44,Weather View 32 v70,2013-04-04 19:41:00,
2013-04-04 15:46:00,41.0,41.0,30.01,ENE,68,14.0,21.0,100,0.06,,,0.45,Weather View 32 v70,2013-04-04 19:46:00,
2013-04-04 15:51:00,41.0,41.0,30.01,East,90,3.0,21.0,100,0.06,,,0.46,Weather View 32 v70,2013-04-04 19:51:00,
2013-04-04 15:56:00,41.0,41.0,30.02,North,0,5.0,21.0,100,0.06,,,0.47,Weather View 32 v70,2013-04-04 19:56:00,
2013-04-04 16:02:00,41.0,41.0,30.01,ENE,68,9.0,21.0,100,0.06,,,0.48,Weather View 32 v70,2013-04-04 20:02:00,
2013-04-04 16:07:00,41.0,41.0,30.01,ENE,68,8.0,21.0,100,0.07,,,0.49,Weather View 32 v70,2013-04-04 20:07:00,
2013-04-04 16:12:00,41.0,41.0,30.00,ENE,68,7.0,21.0,100,0.06,,,0.49,Weather View 32 v70,2013-04-04 20:12:00,
2013-04-04 16:17:00,41.0,41.0,30.01,ENE,68,4.0,21.0,100,0.07,,,0.50,Weather View 32 v70,2013-04-04 20:17:00,
2013-04-04 16:22:00,41.0,41.0,30.00,North,0,4.0,21.0,100,0.08,,,0.51,Weather View 32 v70,2013-04-04 20:22:00,
2013-04-04 16:27:00,41.0,41.0,29.99,ENE,68,9.0,21.0,100,0.09,,,0.52,Weather View 32 v70,2013-04-04 20:27:00,
2013-04-04 16:32:00,41.0,41.0,29.99,ENE,68,5.0,21.0,100,0.09,,,0.53,Weather View 32 v70,2013-04-04 20:32:00,
2013-04-04 16:37:00,41.0,41.0,29.98,North,0,8.0,16.0,100,0.09,,,0.53,Weather View 32 v70,2013-04-04 20:37:00,
2013-04-04 16:42:00,41.0,41.0,29.98,ENE,68,6.0,18.0,100,0.10,,,0.54,Weather View 32 v70,2013-04-04 20:42:00,
2013-04-04 16:47:00,41.0,41.0,29.97,ENE,68,9.0,18.0,100,0.10,,,0.55,Weather View 32 v70,2013-04-04 20:47:00,
2013-04-04 16:52:00,41.0,41.0,29.97,ENE,68,5.0,18.0,100,0.09,,,0.55,Weather View 32 v70,2013-04-04 20:52:00,
2013-04-04 16:57:00,41.0,41.0,29.96,North,0,3.0,19.0,100,0.09,,,0.56,Weather View 32 v70,2013-04-04 20:57:00,
2013-04-04 17:02:00,41.0,41.0,29.96,ENE,68,8.0,19.0,100,0.08,,,0.56,Weather View 32 v70,2013-04-04 21:02:00,
2013-04-04 17:07:00,41.0,41.0,29.96,North,0,6.0,19.0,100,0.07,,,0.56,Weather View 32 v70,2013-04-04 21:07:00,
2013-04-04 17:12:00,40.0,40.0,29.96,North,0,6.0,19.0,100,0.07,,,0.56,Weather View 32 v70,2013-04-04 21:12:00,
2013-04-04 17:17:00,40.0,40.0,29.97,North,0,2.0,19.0,100,0.07,,,0.57,Weather View 32 v70,2013-04-04 21:17:00,
2013-04-04 17:22:00,40.0,40.0,29.96,ENE,68,6.0,19.0,100,0.06,,,0.57,Weather View 32 v70,2013-04-04 21:22:00,
2013-04-04 17:27:00,40.0,40.0,29.98,ENE,68,6.0,19.0,100,0.05,,,0.57,Weather View 32 v70,2013-04-04 21:27:00,
2013-04-04 17:32:00,40.0,40.0,29.98,NNW,338,6.0,19.0,100,0.06,,,0.58,Weather View 32 v70,2013-04-04 21:32:00,
2013-04-04 17:37:00,40.0,40.0,29.98,North,0,5.0,19.0,100,0.09,,,0.62,Weather View 32 v70,2013-04-04 21:37:00,
2013-04-04 17:42:00,40.0,40.0,29.97,North,0,4.0,19.0,100,0.11,,,0.65,Weather View 32 v70,2013-04-04 21:42:00,
2013-04-04 17:48:00,40.0,40.0,29.97,ENE,68,3.0,19.0,100,0.11,,,0.66,Weather View 32 v70,2013-04-04 21:48:00,
2013-04-04 17:53:00,40.0,40.0,29.97,North,0,3.0,19.0,100,0.11,,,0.66,Weather View 32 v70,2013-04-04 21:53:00,
2013-04-04 17:58:00,41.0,41.0,29.96,ENE,68,3.0,19.0,100,0.11,,,0.67,Weather View 32 v70,2013-04-04 21:58:00,
2013-04-04 18:03:00,40.0,40.0,29.96,East,90,5.0,16.0,100,0.12,,,0.68,Weather View 32 v70,2013-04-04 22:03:00,
2013-04-04 18:08:00,40.0,40.0,29.96,ENE,68,6.0,15.0,100,0.12,,,0.68,Weather View 32 v70,2013-04-04 22:08:00,
2013-04-04 18:13:00,41.0,41.0,29.97,ENE,68,5.0,14.0,100,0.13,,,0.69,Weather View 32 v70,2013-04-04 22:13:00,
2013-04-04 18:18:00,40.0,40.0,29.96,North,0,5.0,14.0,100,0.12,,,0.69,Weather View 32 v70,2013-04-04 22:18:00,
2013-04-04 18:23:00,40.0,40.0,29.96,ENE,68,1.0,14.0,100,0.12,,,0.69,Weather View 32 v70,2013-04-04 22:23:00,
2013-04-04 18:28:00,40.0,40.0,29.96,NNW,338,5.0,14.0,100,0.13,,,0.70,Weather View 32 v70,2013-04-04 22:28:00,
2013-04-04 18:33:00,41.0,41.0,29.95,ENE,68,6.0,14.0,100,0.13,,,0.71,Weather View 32 v70,2013-04-04 22:33:00,
2013-04-04 18:38:00,40.0,40.0,29.95,North,0,4.0,14.0,100,0.09,,,0.72,Weather View 32 v70,2013-04-04 22:38:00,
2013-04-04 18:43:00,40.0,40.0,29.97,North,0,3.0,14.0,100,0.07,,,0.72,Weather View 32 v70,2013-04-04 22:43:00,
2013-04-04 18:48:00,40.0,40.0,29.97,North,0,6.0,14.0,100,0.07,,,0.73,Weather View 32 v70,2013-04-04 22:48:00,
2013-04-04 18:53:00,40.0,40.0,29.95,ENE,68,7.0,14.0,100,0.08,,,0.74,Weather View 32 v70,2013-04-04 22:53:00,
2013-04-04 18:58:00,40.0,40.0,29.94,North,0,5.0,13.0,100,0.07,,,0.74,Weather View 32 v70,2013-04-04 22:58:00,
2013-04-04 19:03:00,40.0,40.0,29.94,ENE,68,6.0,13.0,100,0.06,,,0.74,Weather View 32 v70,2013-04-04 23:03:00,
2013-04-04 19:08:00,40.0,40.0,29.93,ENE,68,6.0,13.0,100,0.07,,,0.75,Weather View 32 v70,2013-04-04 23:08:00,
2013-04-04 19:13:00,40.0,40.0,29.92,ENE,68,5.0,13.0,100,0.06,,,0.75,Weather View 32 v70,2013-04-04 23:13:00,
2013-04-04 19:18:00,40.0,40.0,29.92,North,0,4.0,13.0,100,0.06,,,0.75,Weather View 32 v70,2013-04-04 23:18:00,
2013-04-04 19:23:00,40.0,40.0,29.91,North,0,3.0,19.0,100,0.06,,,0.75,Weather View 32 v70,2013-04-04 23:23:00,
2013-04-04 19:28:00,40.0,40.0,29.92,East,90,5.0,19.0,100,0.05,,,0.75,Weather View 32 v70,2013-04-04 23:28:00,
2013-04-04 19:33:00,40.0,40.0,29.92,ENE,68,6.0,19.0,100,0.04,,,0.75,Weather View 32 v70,2013-04-04 23:33:00,
2013-04-04 19:38:00,40.0,40.0,29.93,WSW,248,5.0,19.0,100,0.04,,,0.76,Weather View 32 v70,2013-04-04 23:38:00,
2013-04-04 19:43:00,39.0,39.0,29.93,ENE,68,6.0,19.0,100,0.05,,,0.77,Weather View 32 v70,2013-04-04 23:43:00,
2013-04-04 19:48:00,39.0,39.0,29.92,North,0,5.0,19.0,100,0.04,,,0.77,Weather View 32 v70,2013-04-04 23:48:00,
2013-04-04 19:53:00,39.0,39.0,29.92,ENE,68,6.0,19.0,100,0.04,,,0.78,Weather View 32 v70,2013-04-04 23:53:00,
2013-04-04 19:58:00,39.0,39.0,29.92,North,0,4.0,19.0,100,0.04,,,0.78,Weather View 32 v70,2013-04-04 23:58:00,
2013-04-04 20:03:00,39.0,39.0,29.92,ENE,68,3.0,19.0,100,0.04,,,0.78,Weather View 32 v70,2013-04-05 00:03:00,
2013-04-04 20:08:00,39.0,39.0,29.92,ENE,68,3.0,19.0,100,0.03,,,0.78,Weather View 32 v70,2013-04-05 00:08:00,
2013-04-04 20:13:00,39.0,39.0,29.92,North,0,5.0,19.0,100,0.03,,,0.78,Weather View 32 v70,2013-04-05 00:13:00,
2013-04-04 20:18:00,39.0,39.0,29.92,NNW,338,5.0,19.0,100,0.04,,,0.79,Weather View 32 v70,2013-04-05 00:18:00,
2013-04-04 20:23:00,39.0,39.0,29.92,North,0,5.0,13.0,100,0.04,,,0.79,Weather View 32 v70,2013-04-05 00:23:00,
2013-04-04 20:28:00,39.0,39.0,29.91,North,0,4.0,13.0,100,0.04,,,0.79,Weather View 32 v70,2013-04-05 00:28:00,
2013-04-04 20:33:00,39.0,39.0,29.91,North,0,6.0,14.0,100,0.04,,,0.79,Weather View 32 v70,2013-04-05 00:33:00,
2013-04-04 20:38:00,39.0,39.0,29.91,North,0,5.0,14.0,100,0.03,,,0.79,Weather View 32 v70,2013-04-05 00:38:00,
2013-04-04 20:43:00,39.0,39.0,29.91,North,0,8.0,14.0,100,0.03,,,0.80,Weather View 32 v70,2013-04-05 00:43:00,
2013-04-04 20:48:00,39.0,39.0,29.90,ENE,68,7.0,14.0,100,0.03,,,0.80,Weather View 32 v70,2013-04-05 00:48:00,
2013-04-04 20:54:00,39.0,39.0,29.90,ENE,68,8.0,14.0,100,0.02,,,0.80,Weather View 32 v70,2013-04-05 00:54:00,
2013-04-04 20:59:00,39.0,39.0,29.90,North,0,5.0,14.0,100,0.02,,,0.80,Weather View 32 v70,2013-04-05 00:59:00,
2013-04-04 21:04:00,39.0,39.0,29.90,NNW,338,7.0,14.0,100,0.02,,,0.80,Weather View 32 v70,2013-04-05 01:04:00,
2013-04-04 21:09:00,39.0,39.0,29.90,North,0,3.0,14.0,100,0.02,,,0.80,Weather View 32 v70,2013-04-05 01:09:00,
2013-04-04 21:14:00,39.0,39.0,29.91,ENE,68,7.0,14.0,100,0.02,,,0.80,Weather View 32 v70,2013-04-05 01:14:00,
2013-04-04 21:19:00,39.0,39.0,29.91,ENE,68,7.0,14.0,100,0.01,,,0.80,Weather View 32 v70,2013-04-05 01:19:00,
2013-04-04 21:24:00,39.0,39.0,29.90,ENE,68,5.0,14.0,100,0.01,,,0.80,Weather View 32 v70,2013-04-05 01:24:00,
2013-04-04 21:29:00,39.0,39.0,29.90,North,0,4.0,14.0,100,0.01,,,0.80,Weather View 32 v70,2013-04-05 01:29:00,
2013-04-04 21:35:00,39.0,39.0,29.90,NNW,338,6.0,14.0,100,0.01,,,0.80,Weather View 32 v70,2013-04-05 01:35:00,
2013-04-04 21:40:00,39.0,39.0,29.90,NNW,338,6.0,14.0,100,0.01,,,0.80,Weather View 32 v70,2013-04-05 01:40:00,
2013-04-04 21:45:00,39.0,39.0,29.90,NNW,338,6.0,14.0,100,0.00,,,0.80,Weather View 32 v70,2013-04-05 01:45:00,
2013-04-04 21:50:00,39.0,39.0,29.90,North,0,5.0,14.0,100,0.00,,,0.80,Weather View 32 v70,2013-04-05 01:50:00,
2013-04-04 21:55:00,39.0,39.0,29.90,North,0,5.0,14.0,100,0.00,,,0.80,Weather View 32 v70,2013-04-05 01:55:00,
2013-04-04 22:00:00,39.0,39.0,29.90,ENE,68,3.0,11.0,100,0.00,,,0.80,Weather View 32 v70,2013-04-05 02:00:00,
2013-04-04 22:05:00,39.0,39.0,29.89,North,0,3.0,11.0,100,0.00,,,0.80,Weather View 32 v70,2013-04-05 02:05:00,
2013-04-04 22:14:00,39.0,39.0,29.89,North,0,7.0,11.0,100,0.00,,,0.80,Weather View 32 v70,2013-04-05 02:14:00,
2013-04-04 22:19:00,39.0,39.0,29.89,ENE,68,3.0,11.0,100,0.00,,,0.80,Weather View 32 v70,2013-04-05 02:19:00,
2013-04-04 22:24:00,39.0,39.0,29.89,ENE,68,5.0,11.0,100,0.00,,,0.80,Weather View 32 v70,2013-04-05 02:24:00,
2013-04-04 22:29:00,39.0,39.0,29.89,North,0,3.0,11.0,100,0.01,,,0.81,Weather View 32 v70,2013-04-05 02:29:00,
2013-04-04 22:34:00,39.0,39.0,29.89,ENE,68,8.0,12.0,100,0.01,,,0.81,Weather View 32 v70,2013-04-05 02:34:00,
2013-04-04 22:39:00,39.0,39.0,29.88,North,0,5.0,12.0,100,0.01,,,0.81,Weather View 32 v70,2013-04-05 02:39:00,
2013-04-04 22:44:00,39.0,39.0,29.89,NNW,338,5.0,12.0,100,0.01,,,0.81,Weather View 32 v70,2013-04-05 02:44:00,
2013-04-04 22:49:00,39.0,39.0,29.88,North,0,2.0,12.0,100,0.01,,,0.81,Weather View 32 v70,2013-04-05 02:49:00,
2013-04-04 22:54:00,39.0,39.0,29.88,North,0,3.0,12.0,100,0.01,,,0.81,Weather View 32 v70,2013-04-05 02:54:00,
2013-04-04 22:59:00,39.0,39.0,29.88,North,0,3.0,12.0,100,0.01,,,0.81,Weather View 32 v70,2013-04-05 02:59:00,
2013-04-04 23:05:00,39.0,39.0,29.87,North,0,5.0,12.0,100,0.01,,,0.81,Weather View 32 v70,2013-04-05 03:05:00,
2013-04-04 23:10:00,39.0,39.0,29.87,ENE,68,5.0,13.0,100,0.01,,,0.81,Weather View 32 v70,2013-04-05 03:10:00,
2013-04-04 23:15:00,39.0,39.0,29.87,North,0,5.0,13.0,100,0.01,,,0.81,Weather View 32 v70,2013-04-05 03:15:00,
2013-04-04 23:20:00,39.0,39.0,29.87,North,0,3.0,13.0,100,-0.80,,,0.81,Weather View 32 v70,2013-04-05 03:20:00,
2013-04-04 23:25:00,39.0,39.0,29.87,North,0,5.0,13.0,100,0.01,,,0.81,Weather View 32 v70,2013-04-05 03:25:00,
2013-04-04 23:30:00,39.0,39.0,29.87,North,0,4.0,13.0,100,0.00,,,0.81,Weather View 32 v70,2013-04-05 03:30:00,
2013-04-04 23:35:00,39.0,39.0,29.88,North,0,4.0,13.0,100,0.00,,,0.81,Weather View 32 v70,2013-04-05 03:35:00,
2013-04-04 23:40:00,39.0,39.0,29.88,North,0,5.0,13.0,100,0.00,,,0.81,Weather View 32 v70,2013-04-05 03:40:00,
2013-04-04 23:45:00,39.0,39.0,29.88,North,0,3.0,13.0,100,0.00,,,0.81,Weather View 32 v70,2013-04-05 03:45:00,
2013-04-04 23:50:00,39.0,39.0,29.88,North,0,5.0,13.0,100,0.00,,,0.81,Weather View 32 v70,2013-04-05 03:50:00,
2013-04-04 23:55:00,39.0,39.0,29.88,North,0,4.0,13.0,100,0.00,,,0.81,Weather View 32 v70,2013-04-05 03:55:00,